When you browse on this site, cookies collect data to enhance your experience and personalize the content and advertising you see.
Visit our Privacy Policy to learn more. By continuing to use the site, you agree to this use of cookies and data.

Hourly Weather Nizhnie Sury

Today, 4 July, Saturday

Time Temperature Precipitation Wind Pressure Humidity
00:00 +20°C° 0 mm 2 mps 743 mmHg 91%
01:00 +20°C° 0 mm 2 mps 743 mmHg 91%
02:00 +20°C° 0 mm 2 mps 743 mmHg 91%
03:00 +19°C° 0 mm 2 mps 743 mmHg 91%
04:00 +20°C° 0 mm 2 mps 743 mmHg 91%
05:00 +20°C° 0 mm 3 mps 743 mmHg 91%
06:00 +20°C° 0 mm 3 mps 743 mmHg 90%
07:00 +22°C° 0 mm 3 mps 743 mmHg 87%
08:00 +24°C° 0 mm 3 mps 743 mmHg 83%
09:00 +26°C° 0 mm 3 mps 743 mmHg 79%
10:00 +27°C° 0.1 mm 3 mps 743 mmHg 75%
11:00 +28°C° 0.1 mm 3 mps 743 mmHg 70%
12:00 +29°C° 0.1 mm 3 mps 743 mmHg 66%
13:00 +29°C° 0.4 mm 3 mps 743 mmHg 67%
14:00 +29°C° 0.4 mm 3 mps 743 mmHg 68%
15:00 +28°C° 0.4 mm 3 mps 743 mmHg 69%
16:00 +28°C° 0.6 mm 3 mps 743 mmHg 73%
17:00 +27°C° 0.6 mm 2 mps 742 mmHg 77%
18:00 +27°C° 0.6 mm 2 mps 742 mmHg 81%
19:00 +26°C° 0.2 mm 2 mps 742 mmHg 83%
20:00 +24°C° 0.2 mm 1 mps 742 mmHg 85%
21:00 +23°C° 0.2 mm 1 mps 743 mmHg 86%
22:00 +23°C° 0.1 mm 1 mps 743 mmHg 87%
23:00 +22°C° 0.1 mm 1 mps 742 mmHg 87%

Tomorrow, 5 July, Sunday

Time Temperature Precipitation Wind Pressure Humidity
00:00 +22°C° 0.1 mm 1 mps 742 mmHg 88%
01:00 +21°C° 0.1 mm 1 mps 742 mmHg 89%
02:00 +21°C° 0.1 mm 1 mps 742 mmHg 90%
03:00 +21°C° 0.1 mm 1 mps 742 mmHg 91%
04:00 +21°C° 0.2 mm 1 mps 742 mmHg 92%
05:00 +20°C° 0.2 mm 2 mps 742 mmHg 92%
06:00 +20°C° 0.2 mm 2 mps 742 mmHg 93%
07:00 +22°C° 0 mm 1 mps 742 mmHg 92%
08:00 +22°C° 0 mm 1 mps 742 mmHg 91%
09:00 +23°C° 0 mm 1 mps 742 mmHg 90%
10:00 +24°C° 0.3 mm 1 mps 742 mmHg 85%
11:00 +25°C° 0.3 mm 2 mps 742 mmHg 80%
12:00 +26°C° 0.3 mm 2 mps 742 mmHg 75%
13:00 +26°C° 0.9 mm 2 mps 742 mmHg 79%
14:00 +25°C° 0.9 mm 2 mps 742 mmHg 82%
15:00 +24°C° 0.9 mm 2 mps 742 mmHg 85%
16:00 +25°C° 0.1 mm 2 mps 742 mmHg 84%
17:00 +25°C° 0.1 mm 2 mps 741 mmHg 82%
18:00 +25°C° 0.1 mm 2 mps 741 mmHg 81%
19:00 +24°C° 0.1 mm 2 mps 741 mmHg 84%
20:00 +23°C° 0.1 mm 2 mps 742 mmHg 86%
21:00 +21°C° 0.1 mm 2 mps 742 mmHg 89%
22:00 +20°C° 0 mm 2 mps 742 mmHg 89%
23:00 +20°C° 0 mm 2 mps 742 mmHg 90%

Day after tomorrow, 6 July, Monday

Time Temperature Precipitation Wind Pressure Humidity
00:00 +20°C° 0 mm 1 mps 742 mmHg 90%
01:00 +20°C° 0 mm 1 mps 742 mmHg 90%
02:00 +19°C° 0 mm 1 mps 742 mmHg 90%
03:00 +17°C° 0 mm 0 mps 742 mmHg 90%
04:00 +18°C° 0 mm 0 mps 742 mmHg 90%
05:00 +18°C° 0 mm 0 mps 742 mmHg 89%
06:00 +21°C° 0 mm 1 mps 742 mmHg 88%
07:00 +22°C° 0 mm 1 mps 742 mmHg 84%
08:00 +23°C° 0 mm 1 mps 742 mmHg 80%
09:00 +23°C° 0 mm 0 mps 742 mmHg 75%
10:00 +26°C° 0 mm 1 mps 742 mmHg 72%
11:00 +27°C° 0 mm 1 mps 742 mmHg 68%
12:00 +28°C° 0 mm 1 mps 742 mmHg 64%
13:00 +28°C° 0 mm 1 mps 742 mmHg 63%
14:00 +29°C° 0 mm 1 mps 741 mmHg 62%
15:00 +29°C° 0 mm 1 mps 741 mmHg 61%
16:00 +29°C° 0.1 mm 1 mps 741 mmHg 65%
17:00 +28°C° 0.1 mm 1 mps 741 mmHg 68%
18:00 +28°C° 0.1 mm 1 mps 741 mmHg 71%
19:00 +27°C° 0 mm 1 mps 741 mmHg 75%
20:00 +25°C° 0 mm 1 mps 741 mmHg 80%
21:00 +24°C° 0 mm 1 mps 741 mmHg 84%
22:00 +23°C° 0 mm 1 mps 741 mmHg 85%
23:00 +23°C° 0 mm 1 mps 741 mmHg 87%

7 July, Tuesday

Time Temperature Precipitation Wind Pressure Humidity
00:00 +22°C° 0 mm 1 mps 741 mmHg 89%
01:00 +22°C° 0 mm 1 mps 741 mmHg 89%
02:00 +21°C° 0 mm 1 mps 741 mmHg 90%
03:00 +21°C° 0 mm 1 mps 741 mmHg 90%
04:00 +22°C° 0 mm 1 mps 741 mmHg 89%
05:00 +22°C° 0 mm 1 mps 741 mmHg 89%
06:00 +23°C° 0 mm 1 mps 741 mmHg 88%
07:00 +24°C° 0 mm 1 mps 740 mmHg 84%
08:00 +25°C° 0 mm 2 mps 740 mmHg 80%
09:00 +27°C° 0 mm 2 mps 740 mmHg 76%
10:00 +28°C° 0 mm 2 mps 740 mmHg 72%
11:00 +29°C° 0 mm 2 mps 740 mmHg 67%
12:00 +30°C° 0 mm 3 mps 739 mmHg 62%
13:00 +30°C° 0 mm 3 mps 739 mmHg 63%
14:00 +31°C° 0 mm 3 mps 739 mmHg 64%
15:00 +31°C° 0 mm 3 mps 739 mmHg 65%
16:00 +30°C° 1 mm 3 mps 738 mmHg 70%
17:00 +29°C° 1 mm 3 mps 738 mmHg 74%
18:00 +28°C° 1 mm 3 mps 738 mmHg 79%
19:00 +26°C° 0.5 mm 2 mps 738 mmHg 81%
20:00 +25°C° 0.5 mm 2 mps 738 mmHg 83%
21:00 +23°C° 0.5 mm 1 mps 738 mmHg 85%
22:00 +23°C° 0.7 mm 1 mps 738 mmHg 87%
23:00 +22°C° 0.7 mm 1 mps 738 mmHg 88%

8 July, Wednesday

Time Temperature Precipitation Wind Pressure Humidity
00:00 +20°C° 0.7 mm 2 mps 738 mmHg 89%
01:00 +20°C° 2.1 mm 2 mps 738 mmHg 90%
02:00 +21°C° 2.1 mm 1 mps 738 mmHg 91%
03:00 +20°C° 2.1 mm 1 mps 738 mmHg 92%
04:00 +19°C° 1 mm 2 mps 738 mmHg 93%
05:00 +19°C° 1 mm 2 mps 738 mmHg 94%
06:00 +19°C° 1 mm 3 mps 738 mmHg 95%
07:00 +20°C° 0.4 mm 3 mps 738 mmHg 94%
08:00 +20°C° 0.4 mm 4 mps 738 mmHg 93%
09:00 +21°C° 0.4 mm 5 mps 738 mmHg 92%
10:00 +20°C° 0.3 mm 5 mps 739 mmHg 91%
11:00 +20°C° 0.3 mm 6 mps 739 mmHg 91%
12:00 +20°C° 0.3 mm 6 mps 739 mmHg 90%
13:00 +20°C° 0.3 mm 6 mps 740 mmHg 89%
14:00 +20°C° 0.3 mm 6 mps 740 mmHg 87%
15:00 +20°C° 0.3 mm 5 mps 740 mmHg 85%
16:00 +20°C° 0 mm 5 mps 740 mmHg 85%
17:00 +19°C° 0 mm 5 mps 741 mmHg 85%
18:00 +19°C° 0 mm 4 mps 741 mmHg 85%
19:00 +18°C° 0 mm 4 mps 741 mmHg 87%
20:00 +17°C° 0 mm 4 mps 741 mmHg 89%
21:00 +16°C° 0 mm 3 mps 742 mmHg 91%
22:00 +16°C° 0 mm 3 mps 742 mmHg 92%
23:00 +14°C° 0 mm 3 mps 742 mmHg 92%

9 July, Thursday

Time Temperature Precipitation Wind Pressure Humidity
00:00 +14°C° 0 mm 2 mps 742 mmHg 93%
01:00 +14°C° 0 mm 2 mps 742 mmHg 93%
02:00 +13°C° 0 mm 2 mps 742 mmHg 94%
03:00 +13°C° 0 mm 2 mps 742 mmHg 94%
04:00 +13°C° 0 mm 2 mps 742 mmHg 93%
05:00 +14°C° 0 mm 2 mps 742 mmHg 92%
06:00 +14°C° 0 mm 2 mps 742 mmHg 91%
07:00 +14°C° 0 mm 3 mps 742 mmHg 86%
08:00 +16°C° 0 mm 3 mps 742 mmHg 82%
09:00 +18°C° 0 mm 3 mps 742 mmHg 78%
10:00 +19°C° 0 mm 3 mps 742 mmHg 74%
11:00 +20°C° 0 mm 4 mps 742 mmHg 70%
12:00 +20°C° 0 mm 4 mps 742 mmHg 66%
13:00 +20°C° 0.2 mm 5 mps 742 mmHg 66%
14:00 +20°C° 0.2 mm 5 mps 742 mmHg 67%
15:00 +20°C° 0.2 mm 6 mps 742 mmHg 67%
16:00 +20°C° 0.1 mm 5 mps 742 mmHg 69%
17:00 +19°C° 0.1 mm 5 mps 742 mmHg 71%
18:00 +19°C° 0.1 mm 5 mps 742 mmHg 72%
19:00 +17°C° 0.1 mm 4 mps 742 mmHg 77%
20:00 +15°C° 0.1 mm 4 mps 742 mmHg 82%
21:00 +13°C° 0.1 mm 3 mps 743 mmHg 87%
22:00 +13°C° 0 mm 3 mps 743 mmHg 89%
23:00 +12°C° 0 mm 3 mps 743 mmHg 90%
Show more